Retour au catalogue

STARLINK-36323

ActifCommunicationsVLEO
NORAD 68259·PAYLOAD·🇺🇸 United States

Lancé Mar 17, 2026 depuis Vandenberg Space Force Base

Loading…

Prochains Passages (prochaines 24 heures)

TLE

FraisSource: CelesTrak SupGP

Époque: Sep 14, 2026, 21:19 UTC

1 68259C 26054AD  26257.88868056 -.00052980  00000+0 -15653-2 0  2572
2 68259  53.1571 128.0549 0001292  90.5886 137.4582 15.34416871    14

Suivez STARLINK-36323 en temps réel avec AllMySat

Download on the App Store